Aberdeen, SD

2:28 PM CST on February 24, 2018 (GMT -0600)
Aberdeen Regional

Weather History for KABR - April, 2014

Change the Weather History Date:

Thursday, April 24, 2014

  Actual Average Record
Temperature  
Mean Temperature 52 °F 48 °F  
Max Temperature 67 °F 62 °F 92 °F (1962)
Min Temperature 36 °F 35 °F 17 °F (1956)
Degree Days  
Heating Degree Days 13 17  
Month to date heating degree days 594 530  
Since 1 July heating degree days 8975 8081  
Cooling Degree Days 0 0  
Month to date cooling degree days 0 0  
Year to date cooling degree days 0 0  
Growing Degree Days 2 (Base 50)    
Moisture  
Dew Point 32 °F    
Average Humidity 60    
Maximum Humidity 100    
Minimum Humidity 19    
Precipitation  
Precipitation 0.00 in 0.09 in 1.29 in (2010)
Month to date precipitation 0.18 1.34  
Year to date precipitation 1.39 3.52  
Snow  
Snow 0.00 in 0.00 in 2.30 in (1973)
Month to date snowfall 0.2 2.8  
Since 1 July snowfall 32.7 37.8  
Snow Depth 0.00 in    
Sea Level Pressure  
Sea Level Pressure 29.74 in    
Wind  
Wind Speed 10 mph (NW)    
Max Wind Speed 35 mph    
Max Gust Speed 41 mph    
Visibility 9 miles    
Events      
T = Trace of Precipitation, MM = Missing Value Source: NWS Daily Summary

Daily Weather History Graph

Daily Weather History Graph

Search for Another Location

Airport or City:

Trip Planner

Search our weather history database for the weather conditions in past years. The results will help you decide how hot, cold, wet, or windy it might be!

Date:

Astronomy

Apr. 24, 2014 Rise Set
Actual Time 6:32 AM CDT 8:31 PM CDT
Civil Twilight 6:01 AM CDT 9:03 PM CDT
Nautical Twilight 5:21 AM CDT 9:42 PM CDT
Astronomical Twilight 4:39 AM CDT 10:26 PM CDT
Moon 3:59 AM CDT 3:35 PM CDT
Length of Visible Light 15h 02m
Length of Day
13h 58m
Waning Crescent, 24% of the Moon is Illuminated
Apr 24
Waning Crescent
Apr 29
New
May 6
First Quarter
May 14
Full
May 21
Last Quarter

Hourly Weather History & Observations

Time (CDT) Temp. Windchill Dew Point Humidity Pressure Visibility Wind Dir Wind Speed Gust Speed Precip Events Conditions
12:53 AM 39.0 °F 33.4 °F 37.9 °F 96% 29.77 in 10.0 mi NNW 8.1 mph - N/A   Scattered Clouds
1:53 AM 39.0 °F 34.8 °F 37.9 °F 96% 29.75 in 9.0 mi NE 5.8 mph - N/A   Overcast
2:53 AM 39.0 °F 35.7 °F 37.9 °F 96% 29.75 in 9.0 mi ENE 4.6 mph - N/A   Mostly Cloudy
3:53 AM 39.0 °F - 37.9 °F 96% 29.74 in 9.0 mi Calm Calm - N/A   Overcast
4:53 AM 37.9 °F - 37.0 °F 97% 29.74 in 9.0 mi Calm Calm - N/A   Clear
5:53 AM 37.9 °F - 37.0 °F 97% 29.76 in 8.0 mi Calm Calm - N/A   Clear
6:53 AM 37.0 °F 31.6 °F 37.0 °F 100% 29.76 in 5.0 mi NW 6.9 mph - N/A   Clear
7:53 AM 37.9 °F 34.4 °F 37.9 °F 100% 29.77 in 6.0 mi NW 4.6 mph - N/A   Clear
8:53 AM 39.9 °F 36.7 °F 39.0 °F 97% 29.78 in 6.0 mi WNW 4.6 mph - N/A   Clear
9:53 AM 48.0 °F - 41.0 °F 77% 29.77 in 10.0 mi WNW 8.1 mph - N/A   Clear
10:53 AM 53.1 °F - 41.0 °F 64% 29.75 in 10.0 mi NNW 6.9 mph - N/A   Clear
11:53 AM 55.9 °F - 37.9 °F 51% 29.75 in 10.0 mi WNW 12.7 mph - N/A   Clear
12:53 PM 61.0 °F - 36.0 °F 39% 29.73 in 10.0 mi NW 13.8 mph - N/A   Clear
1:53 PM 63.0 °F - 28.0 °F 27% 29.70 in 10.0 mi NW 18.4 mph 24.2 mph N/A   Scattered Clouds
2:53 PM 62.1 °F - 24.1 °F 23% 29.69 in 10.0 mi WNW 23.0 mph 32.2 mph N/A   Mostly Cloudy
3:53 PM 63.0 °F - 21.0 °F 20% 29.69 in 10.0 mi WNW 21.9 mph 32.2 mph N/A   Scattered Clouds
4:53 PM 61.0 °F - 21.9 °F 22% 29.68 in 10.0 mi NW 15.0 mph 19.6 mph N/A   Scattered Clouds
5:53 PM 64.0 °F - 21.0 °F 19% 29.69 in 10.0 mi West 16.1 mph 28.8 mph N/A   Scattered Clouds
6:53 PM 62.1 °F - 19.9 °F 20% 29.69 in 10.0 mi NW 20.7 mph 24.2 mph N/A   Clear
7:53 PM 59.0 °F - 18.0 °F 20% 29.70 in 10.0 mi NW 16.1 mph - N/A   Clear
8:53 PM 48.9 °F - 21.9 °F 35% 29.72 in 10.0 mi NNW 6.9 mph - N/A   Clear
9:53 PM 39.9 °F 37.8 °F 21.9 °F 49% 29.76 in 10.0 mi WNW 3.5 mph - N/A   Clear
10:53 PM 44.1 °F 38.1 °F 28.9 °F 55% 29.77 in 10.0 mi North 11.5 mph - N/A   Clear
11:53 PM 41.0 °F 36.4 °F 32.0 °F 70% 29.78 in 10.0 mi North 6.9 mph - N/A   Clear